[[{"header":{"parameterUnit":"m.s-1","parameterCategory":1,"la1":30.2991,"la2":30.254,"lo1":-89.0895,"lo2":-89.0444,"dy":0.0017,"dx":0.0017,"nx":28,"ny":28,"refTime":"2023-08-11T21:00:00:Z","depth":0,"parameterNumber":2,"parameterNumberName":"U-component_of_WINDS"},"data":[0,0,0,0,0,0,0,0,0,0,0,0,0,0,0,0,0,0,0,0,0,0,0,0,0,0,0,0,0,0,0,0,0,0,0,0,0,0,0,0,0,0,0,0,0,0,0,0,0,0,0,0,0,0,0,0,0,0,0.5042,0.5043,0,0.5111,0.5112,0.5112,0.5122,0.5121,0.5121,0.512,0.5197,0.5199,0.5202,0,0,0,0,0,0,0,0,0,0,0,0,0,0.4925,0.4927,0.5042,0.5043,0.5044,0.5111,0.5112,0.5113,0.5122,0.5121,0.512,0.512,0.5196,0.5199,0.5202,0,0,0,0,0,0,0,0,0,0,0,0,0,0.4983,0.4927,0.5042,0.5056,0.5058,0.511,0.5112,0.5113,0.5122,0.5121,0.512,0.5119,0.5195,0.5199,0.5203,0.5247,0,0,0.5215,0.5216,0,0,0,0,0,0,0,0,0.498,0.4987,0.5053,0.5055,0.5058,0.5107,0.5098,0.5158,0.5122,0.5098,0.512,0.5119,0.5168,0.5174,0.5189,0.5251,0.5254,0.5215,0.5218,0.5219,0.522,0,0,0,0,0,0,0,0.4976,0.4984,0.5069,0.5054,0.5057,0.5061,0.5068,0.511,0.5138,0.51,0.5101,0.5109,0.5169,0.5185,0.5191,0.5255,0.5215,0.5219,0.5221,0.5223,0.5357,0.5359,0,0,0,0,0,0,0.4968,0.4981,0.5067,0.5071,0.5015,0.5064,0.5072,0.5092,0.5137,0.5143,0.5109,0.5109,0.5179,0.5187,0.5194,0.525,0.5219,0.5223,0.5225,0.5356,0.5358,0.5359,0,0,0,0,0,0,0.4965,0.4976,0.5064,0.5026,0.5038,0.5067,0.5089,0.5094,0.511,0.5144,0.515,0.5121,0.5179,0.5188,0.5234,0.5252,0.5225,0.5228,0.5355,0.5357,0.5358,0.5361,0,0,0,0,0,0,0.4962,0.4975,0.499,0.5027,0.504,0.5101,0.509,0.5096,0.5116,0.5116,0.5156,0.5162,0.5179,0.5228,0.5237,0.5257,0.5231,0.5353,0.5356,0.5358,0.5359,0.5362,0.5365,0,0,0,0,0,0.4958,0.4989,0.4991,0.5001,0.506,0.5102,0.511,0.5126,0.5118,0.5135,0.5157,0.5161,0.5248,0.5232,0.5243,0.5265,0.5352,0.5355,0.5358,0.5358,0.5362,0.5365,0,0,0,0,0,0,0.4957,0.4994,0.4997,0.504,0.5068,0.5103,0.5125,0.513,0.5161,0.516,0.5181,0.519,0.5235,0.5254,0.5235,0.5311,0.53,0.5305,0.5296,0.53,0.5303,0.5298,0.5235,0,0,0,0,0,0.4961,0.499,0.5022,0.5058,0.5071,0.5096,0.5115,0.5125,0.5155,0.5167,0.5192,0.5223,0.5257,0.528,0.5313,0.5362,0.5372,0.5382,0.5385,0.5387,0.5392,0.542,0.5425,0.5368,0.5368,0.5368,0,0,0.4972,0.4996,0.5013,0.5058,0.5081,0.5112,0.5106,0.5139,0.5163,0.5173,0.5217,0.5236,0.5272,0.5319,0.5341,0.5337,0.541,0.5391,0.5392,0.5396,0.5423,0.5429,0.5434,0.537,0.5369,0.5369,0,0,0.5006,0.5027,0.5059,0.5081,0.5114,0.513,0.5138,0.5173,0.5186,0.523,0.5238,0.5268,0.5326,0.5352,0.5372,0.5417,0.5422,0.5427,0.5443,0.547,0.5475,0.5479,0.5496,0.5502,0.5431,0.5431,0.5431,0,0.5016,0.5061,0.5076,0.5109,0.5129,0.5137,0.5171,0.5192,0.5236,0.5251,0.5244,0.5318,0.5343,0.5396,0.5407,0.5423,0.5434,0.5423,0.5473,0.5477,0.5481,0.5498,0.5504,0.5432,0.5432,0.5432,0.5432,0,0.5072,0.5103,0.5126,0.5165,0.5188,0.5221,0.5243,0.5265,0.5273,0.529,0.5336,0.5365,0.5405,0.5418,0.5428,0.5474,0.547,0.5468,0.5458,0.5487,0.5503,0.5509,0.5432,0.5432,0.5432,0.5432,0,0,0.5108,0.5154,0.5162,0.5181,0.5218,0.5244,0.5278,0.5315,0.5334,0.5364,0.5394,0.5444,0.5442,0.5465,0.5478,0.5501,0.5536,0.5497,0.5498,0.5504,0.5589,0.5591,0.5598,0.5539,0.554,0.5541,0.5587,0,0.5148,0.5207,0.5221,0.5273,0.5304,0.5312,0.5342,0.5369,0.5386,0.5416,0.5436,0.5471,0.5466,0.548,0.5503,0.5526,0.5553,0.5523,0.557,0.5571,0.5561,0.5606,0.5608,0.5649,0.5593,0.5594,0.5595,0,0.5202,0.5231,0.5285,0.5318,0.5332,0.5359,0.5394,0.5422,0.5453,0.5464,0.549,0.55,0.5538,0.5525,0.5579,0.5558,0.5578,0.5592,0.5594,0.56,0.5585,0.5614,0.5663,0.5669,0.5604,0.5604,0.5603,0,0.5225,0.5277,0.5316,0.5332,0.5371,0.539,0.5408,0.5438,0.546,0.5491,0.5506,0.5542,0.5563,0.5591,0.5611,0.56,0.5664,0.5653,0.5676,0.5676,0.569,0.5689,0.5743,0.5701,0.5701,0.5701,0.5701,0,0.5268,0.5301,0.5327,0.5351,0.5389,0.5406,0.5443,0.5462,0.5489,0.5518,0.5528,0.5556,0.558,0.5612,0.5628,0.5671,0.568,0.5691,0.5696,0.5691,0.569,0.5705,0.5703,0.5703,0.5702,0.5702,0.5702,0,0.53,0.5318,0.5361,0.5395,0.5404,0.5431,0.546,0.5485,0.5502,0.554,0.555,0.5577,0.5615,0.5638,0.5686,0.5697,0.5745,0.5747,0.5734,0.5736,0.5758,0.5756,0.5825,0.5835,0.5785,0.5786,0.5786,0,0.5326,0.5352,0.5387,0.5407,0.5424,0.5456,0.5477,0.5495,0.5517,0.5555,0.5576,0.5614,0.5645,0.5706,0.5732,0.5769,0.5773,0.5795,0.5779,0.5774,0.5775,0.5773,0.5776,0.5798,0.5799,0.5799,0.5799,0,0.5372,0.538,0.5409,0.5442,0.5467,0.5495,0.5522,0.5538,0.5561,0.5586,0.5623,0.5647,0.5696,0.5734,0.5774,0.5795,0.5802,0.5804,0.5811,0.5807,0.5798,0.5804,0.5742,0.5802,0.5802,0.5802,0.5802,0.5801,0.5403,0.5426,0.5455,0.5487,0.5509,0.5535,0.556,0.5579,0.561,0.565,0.5659,0.5699,0.5731,0.5785,0.5806,0.5839,0.5836,0.5846,0.5849,0.5852,0.5853,0.5792,0.5846,0.5846,0.5846,0.5846,0.5846,0,0.545,0.5469,0.5498,0.5535,0.5562,0.5563,0.5594,0.5616,0.565,0.5679,0.5709,0.5753,0.579,0.5818,0.5857,0.5878,0.5882,0.5887,0.5887,0.5891,0.5853,0.5843,0.5883,0.5883,0.5883,0.5883,0.5883,0.5883,0.5478,0.5517,0.5528,0.5579,0.5598,0.5635,0.5653,0.5677,0.5699,0.5747,0.5777,0.5795,0.5824,0.5864,0.5899,0.5907,0.5921,0.5926,0.5934,0.5898,0.5894,0.589,0.5881,0.5929,0.5929,0.597,0.597,0.597]},{"header":{"parameterUnit":"m.s-1","parameterCategory":1,"la1":30.2991,"la2":30.254,"lo1":-89.0895,"lo2":-89.0444,"dy":0.0017,"dx":0.0017,"nx":28,"ny":28,"refTime":"2023-08-11T21:00:00:Z","depth":0,"parameterNumber":3,"parameterNumberName":"V-component_of_WINDS"},"data":[0,0,0,0,0,0,0,0,0,0,0,0,0,0,0,0,0,0,0,0,0,0,0,0,0,0,0,0,0,0,0,0,0,0,0,0,0,0,0,0,0,0,0,0,0,0,0,0,0,0,0,0,0,0,0,0,0,0,2.5676,2.5677,0,2.5702,2.5702,2.5702,2.5721,2.5721,2.5721,2.5721,2.5744,2.5745,2.5745,0,0,0,0,0,0,0,0,0,0,0,0,0,2.5639,2.564,2.5676,2.5677,2.5677,2.5702,2.5702,2.5702,2.5721,2.5721,2.5721,2.5721,2.5744,2.5745,2.5745,0,0,0,0,0,0,0,0,0,0,0,0,0,2.5659,2.564,2.5676,2.5689,2.5691,2.5702,2.5702,2.5702,2.5721,2.5721,2.5721,2.5721,2.5744,2.5744,2.5745,2.5745,0,0,2.5747,2.5748,0,0,0,0,0,0,0,0,2.5658,2.566,2.5687,2.5688,2.569,2.5708,2.5697,2.5716,2.5721,2.5709,2.5721,2.5721,2.5732,2.5733,2.5738,2.5746,2.5747,2.5747,2.5748,2.5748,2.5748,0,0,0,0,0,0,0,2.5656,2.5659,2.5686,2.5687,2.5689,2.5692,2.5695,2.5701,2.5719,2.571,2.5712,2.5714,2.5733,2.5737,2.5738,2.5747,2.5747,2.5748,2.5748,2.5749,2.5753,2.5752,0,0,0,0,0,0,2.5654,2.5658,2.5685,2.5687,2.5674,2.5693,2.5696,2.5702,2.5719,2.5722,2.5714,2.5715,2.5736,2.5737,2.5739,2.5738,2.5748,2.5749,2.5749,2.5753,2.5753,2.5752,0,0,0,0,0,0,2.5653,2.5656,2.5684,2.5673,2.5677,2.5693,2.57,2.5702,2.5707,2.5722,2.5725,2.5716,2.5736,2.5738,2.5743,2.5739,2.5749,2.575,2.5753,2.5753,2.5752,2.5736,0,0,0,0,0,0,2.5652,2.5656,2.5657,2.5673,2.5677,2.5689,2.5699,2.5703,2.5708,2.571,2.5724,2.5726,2.5736,2.5742,2.5743,2.574,2.575,2.5754,2.5753,2.5753,2.5737,2.5735,2.5734,0,0,0,0,0,2.565,2.5651,2.5657,2.566,2.5679,2.5689,2.5691,2.5703,2.5708,2.5708,2.5718,2.5726,2.5739,2.5742,2.5744,2.5741,2.5754,2.5753,2.5753,2.5738,2.5736,2.5734,0,0,0,0,0,0,2.5634,2.5654,2.566,2.5666,2.5676,2.5692,2.5693,2.5701,2.5709,2.571,2.5723,2.5726,2.5729,2.5735,2.5738,2.574,2.5747,2.5747,2.5736,2.5734,2.5732,2.573,2.5751,0,0,0,0,0,2.5631,2.5638,2.5655,2.5658,2.5663,2.5677,2.5682,2.569,2.57,2.5704,2.5713,2.5721,2.5727,2.5731,2.5737,2.5738,2.574,2.5737,2.5735,2.5734,2.5733,2.5732,2.573,2.575,2.575,2.575,0,0,2.5625,2.5637,2.5641,2.5655,2.5664,2.5669,2.568,2.5686,2.569,2.5704,2.5709,2.5716,2.5726,2.5728,2.5729,2.5734,2.5728,2.5733,2.5732,2.5732,2.5731,2.5729,2.5727,2.575,2.575,2.575,0,0,2.5617,2.5628,2.5631,2.5639,2.5651,2.566,2.5661,2.5675,2.568,2.5685,2.5696,2.5699,2.571,2.5716,2.572,2.5711,2.5719,2.5713,2.5704,2.5702,2.5701,2.5699,2.5694,2.5693,2.5712,2.5712,2.5712,0,2.5608,2.5618,2.5632,2.5636,2.5642,2.5655,2.5657,2.5664,2.5677,2.568,2.5684,2.5696,2.5704,2.5706,2.5704,2.5708,2.5707,2.5711,2.57,2.5699,2.5698,2.5693,2.5692,2.5711,2.5712,2.5712,2.5712,0,2.5606,2.5612,2.5613,2.5626,2.5631,2.5635,2.5647,2.565,2.5657,2.5665,2.5668,2.5678,2.5685,2.5686,2.5694,2.5689,2.5691,2.5698,2.5706,2.5695,2.5691,2.5689,2.571,2.5711,2.5711,2.5711,0,0,2.559,2.5608,2.5608,2.5613,2.5627,2.5631,2.5634,2.5641,2.5643,2.5651,2.5653,2.566,2.5665,2.567,2.5678,2.5676,2.5666,2.5683,2.5683,2.5678,2.566,2.5654,2.5652,2.5671,2.5671,2.5671,2.5658,0,2.5583,2.5591,2.5601,2.5604,2.5609,2.562,2.5622,2.563,2.5636,2.564,2.5647,2.5651,2.5659,2.5662,2.5661,2.5668,2.5663,2.5669,2.5671,2.5671,2.5668,2.565,2.5645,2.5633,2.5657,2.5657,2.5657,0,2.5578,2.5585,2.5588,2.5599,2.5601,2.5603,2.5609,2.5613,2.5621,2.5625,2.5629,2.5637,2.5639,2.5646,2.5647,2.5651,2.5652,2.5655,2.5655,2.5655,2.5663,2.5649,2.563,2.5627,2.5655,2.5655,2.5655,0,2.5564,2.5574,2.5577,2.5581,2.5594,2.5595,2.56,2.5607,2.561,2.5615,2.5617,2.5622,2.5624,2.5627,2.5635,2.564,2.5634,2.5643,2.5637,2.5636,2.5635,2.5635,2.5614,2.5637,2.5637,2.5637,2.5637,0,2.5556,2.5557,2.5571,2.5573,2.5573,2.5585,2.5584,2.559,2.5597,2.5598,2.5608,2.5609,2.562,2.5621,2.5627,2.5626,2.5627,2.563,2.5631,2.5628,2.5628,2.5629,2.563,2.5637,2.5637,2.5637,2.5637,0,2.5541,2.5551,2.5554,2.5565,2.5568,2.5568,2.5577,2.5578,2.5584,2.5585,2.5586,2.5596,2.5598,2.5606,2.561,2.5614,2.561,2.5614,2.5608,2.5609,2.5601,2.5601,2.5581,2.5577,2.5603,2.5603,2.5602,0,2.5535,2.5536,2.5547,2.5549,2.5553,2.5556,2.5559,2.5569,2.5571,2.5578,2.5577,2.558,2.5583,2.5585,2.5592,2.5594,2.5597,2.5589,2.5597,2.5594,2.5595,2.5594,2.5593,2.5587,2.5587,2.5587,2.5587,0,2.5522,2.5526,2.5531,2.5536,2.5539,2.5543,2.5548,2.5548,2.5559,2.556,2.5563,2.5565,2.5568,2.557,2.5572,2.5576,2.5582,2.5584,2.5582,2.5579,2.5575,2.5576,2.5602,2.5584,2.5585,2.5585,2.5585,2.5585,2.5511,2.5512,2.5519,2.5522,2.5526,2.553,2.5531,2.5536,2.5539,2.5542,2.5548,2.5548,2.5553,2.5557,2.556,2.5559,2.5563,2.5561,2.5561,2.556,2.5558,2.5576,2.556,2.556,2.556,2.556,2.556,0,2.5498,2.5503,2.5506,2.5511,2.5513,2.5519,2.5524,2.5525,2.5525,2.5529,2.5531,2.5532,2.5533,2.5539,2.554,2.5538,2.5541,2.5538,2.5538,2.5538,2.5555,2.5556,2.5536,2.5536,2.5536,2.5536,2.5536,2.5536,2.5492,2.5492,2.5496,2.5498,2.5502,2.5503,2.5505,2.5507,2.551,2.5511,2.5512,2.5515,2.5519,2.552,2.552,2.5522,2.5521,2.5517,2.5519,2.5535,2.5537,2.5539,2.554,2.5517,2.5517,2.5501,2.5501,2.5501]}]]